Year,Month,Day,Hour,Minute,Value (Times are PST for temperature in C)
2016,04,27,00,00,8.70
2016,04,27,00,01,8.70
2016,04,27,00,02,8.70
2016,04,27,00,03,8.70
2016,04,27,00,04,8.70
2016,04,27,00,05,8.70
2016,04,27,00,06,8.70
2016,04,27,00,07,8.70
2016,04,27,00,08,8.70
2016,04,27,00,09,8.70
2016,04,27,00,10,8.70
2016,04,27,00,11,8.70
2016,04,27,00,12,8.70
2016,04,27,00,13,8.70
2016,04,27,00,14,8.60
2016,04,27,00,15,8.60
2016,04,27,00,16,8.60
2016,04,27,00,17,8.60
2016,04,27,00,18,8.60
2016,04,27,00,19,8.60
2016,04,27,00,20,8.60
2016,04,27,00,21,8.60
2016,04,27,00,22,8.60
2016,04,27,00,23,8.60
2016,04,27,00,24,8.60
2016,04,27,00,25,8.60
2016,04,27,00,26,8.60
2016,04,27,00,27,8.60
2016,04,27,00,28,8.60
2016,04,27,00,29,8.50
2016,04,27,00,30,8.50
2016,04,27,00,31,8.50
2016,04,27,00,32,8.50
2016,04,27,00,33,8.50
2016,04,27,00,34,8.50
2016,04,27,00,35,8.50
2016,04,27,00,36,8.40
2016,04,27,00,37,8.40
2016,04,27,00,38,8.40
2016,04,27,00,39,8.40
2016,04,27,00,40,8.40
2016,04,27,00,41,8.40
2016,04,27,00,42,8.40
2016,04,27,00,43,8.40
2016,04,27,00,44,8.40
2016,04,27,00,45,8.40
2016,04,27,00,46,8.40
2016,04,27,00,47,8.40
2016,04,27,00,48,8.40
2016,04,27,00,49,8.30
2016,04,27,00,50,8.30
2016,04,27,00,51,8.30
2016,04,27,00,52,8.40
2016,04,27,00,53,8.40
2016,04,27,00,54,8.40
2016,04,27,00,55,8.30
2016,04,27,00,56,8.30
2016,04,27,00,57,8.30
2016,04,27,00,58,8.30
2016,04,27,00,59,8.30
2016,04,27,01,00,8.30
2016,04,27,01,01,8.30
2016,04,27,01,02,8.30
2016,04,27,01,03,8.30
2016,04,27,01,04,8.30
2016,04,27,01,05,8.20
2016,04,27,01,06,8.20
2016,04,27,01,07,8.20
2016,04,27,01,08,8.20
2016,04,27,01,09,8.20
2016,04,27,01,10,8.20
2016,04,27,01,11,8.10
2016,04,27,01,12,8.10
2016,04,27,01,13,8.10
2016,04,27,01,14,8.10
2016,04,27,01,15,8.10
2016,04,27,01,16,8.10
2016,04,27,01,17,8.10
2016,04,27,01,18,8.10
2016,04,27,01,19,8.00
2016,04,27,01,20,8.00
2016,04,27,01,21,8.00
2016,04,27,01,22,8.00
2016,04,27,01,23,8.00
2016,04,27,01,24,8.00
2016,04,27,01,25,8.00
2016,04,27,01,26,8.00
2016,04,27,01,27,8.00
2016,04,27,01,28,8.00
2016,04,27,01,29,8.00
2016,04,27,01,30,8.00
2016,04,27,01,31,8.00
2016,04,27,01,32,8.00
2016,04,27,01,33,8.00
2016,04,27,01,34,8.00
2016,04,27,01,35,8.00
2016,04,27,01,36,8.00
2016,04,27,01,37,8.00
2016,04,27,01,38,8.00
2016,04,27,01,39,8.00
2016,04,27,01,40,8.00
2016,04,27,01,41,8.00
2016,04,27,01,42,8.00
2016,04,27,01,43,8.00
2016,04,27,01,44,8.00
2016,04,27,01,45,8.00
2016,04,27,01,46,8.00
2016,04,27,01,47,7.90
2016,04,27,01,48,7.90
2016,04,27,01,49,7.90
2016,04,27,01,50,7.90
2016,04,27,01,51,7.90
2016,04,27,01,52,7.90
2016,04,27,01,53,7.90
2016,04,27,01,54,7.90
2016,04,27,01,55,7.90
2016,04,27,01,56,7.90
2016,04,27,01,57,7.90
2016,04,27,01,58,7.90
2016,04,27,01,59,7.90
2016,04,27,02,00,7.90
2016,04,27,02,01,7.90
2016,04,27,02,02,7.90
2016,04,27,02,03,7.90
2016,04,27,02,04,7.90
2016,04,27,02,05,7.90
2016,04,27,02,06,7.90
2016,04,27,02,07,7.90
2016,04,27,02,08,7.90
2016,04,27,02,09,7.90
2016,04,27,02,10,7.90
2016,04,27,02,11,7.90
2016,04,27,02,12,7.90
2016,04,27,02,13,7.90
2016,04,27,02,14,7.90
2016,04,27,02,15,7.90
2016,04,27,02,16,7.90
2016,04,27,02,17,7.90
2016,04,27,02,18,7.90
2016,04,27,02,19,7.90
2016,04,27,02,20,7.90
2016,04,27,02,21,7.90
2016,04,27,02,22,7.90
2016,04,27,02,23,7.80
2016,04,27,02,24,7.80
2016,04,27,02,25,7.90
2016,04,27,02,26,7.80
2016,04,27,02,27,7.80
2016,04,27,02,28,7.90
2016,04,27,02,29,7.80
2016,04,27,02,30,7.90
2016,04,27,02,31,7.90
2016,04,27,02,32,7.90
2016,04,27,02,33,7.90
2016,04,27,02,34,7.90
2016,04,27,02,35,7.90
2016,04,27,02,36,7.90
2016,04,27,02,37,7.90
2016,04,27,02,38,7.90
2016,04,27,02,39,7.90
2016,04,27,02,40,7.90
2016,04,27,02,41,7.90
2016,04,27,02,42,7.90
2016,04,27,02,43,7.90
2016,04,27,02,44,7.90
2016,04,27,02,45,7.90
2016,04,27,02,46,7.90
2016,04,27,02,47,7.90
2016,04,27,02,48,7.90
2016,04,27,02,49,7.90
2016,04,27,02,50,7.90
2016,04,27,02,51,7.90
2016,04,27,02,52,7.90
2016,04,27,02,53,7.90
2016,04,27,02,54,7.90
2016,04,27,02,55,7.90
2016,04,27,02,56,7.90
2016,04,27,02,57,7.90
2016,04,27,02,58,7.90
2016,04,27,02,59,7.90
2016,04,27,03,00,7.90
2016,04,27,03,01,7.90
2016,04,27,03,02,7.90
2016,04,27,03,03,7.90
2016,04,27,03,04,7.90
2016,04,27,03,05,7.80
2016,04,27,03,06,7.80
2016,04,27,03,07,7.80
2016,04,27,03,08,7.80
2016,04,27,03,09,7.80
2016,04,27,03,10,7.80
2016,04,27,03,11,7.80
2016,04,27,03,12,7.80
2016,04,27,03,13,7.80
2016,04,27,03,14,7.80
2016,04,27,03,15,7.80
2016,04,27,03,16,7.80
2016,04,27,03,17,7.80
2016,04,27,03,18,7.80
2016,04,27,03,19,7.80
2016,04,27,03,20,7.80
2016,04,27,03,21,7.80
2016,04,27,03,22,7.80
2016,04,27,03,23,7.80
2016,04,27,03,24,7.80
2016,04,27,03,25,7.80
2016,04,27,03,26,7.80
2016,04,27,03,27,7.80
2016,04,27,03,28,7.80
2016,04,27,03,29,7.80
2016,04,27,03,30,7.80
2016,04,27,03,31,7.80
2016,04,27,03,32,7.80
2016,04,27,03,33,7.70
2016,04,27,03,34,7.70
2016,04,27,03,35,7.70
2016,04,27,03,36,7.70
2016,04,27,03,37,7.70
2016,04,27,03,38,7.70
2016,04,27,03,39,7.70
2016,04,27,03,40,7.70
2016,04,27,03,41,7.70
2016,04,27,03,42,7.70
2016,04,27,03,43,7.70
2016,04,27,03,44,7.70
2016,04,27,03,45,7.80
2016,04,27,03,46,7.80
2016,04,27,03,47,7.80
2016,04,27,03,48,7.70
2016,04,27,03,49,7.70
2016,04,27,03,50,7.70
2016,04,27,03,51,7.70
2016,04,27,03,52,7.70
2016,04,27,03,53,7.70
2016,04,27,03,54,7.70
2016,04,27,03,55,7.70
2016,04,27,03,56,7.70
2016,04,27,03,57,7.70
2016,04,27,03,58,7.70
2016,04,27,03,59,7.70
2016,04,27,04,00,7.70
2016,04,27,04,01,7.70
2016,04,27,04,02,7.70
2016,04,27,04,03,7.70
2016,04,27,04,04,7.70
2016,04,27,04,05,7.70
2016,04,27,04,06,7.70
2016,04,27,04,07,7.70
2016,04,27,04,08,7.60
2016,04,27,04,09,7.60
2016,04,27,04,10,7.60
2016,04,27,04,11,7.60
2016,04,27,04,12,7.60
2016,04,27,04,13,7.60
2016,04,27,04,14,7.60
2016,04,27,04,15,7.60
2016,04,27,04,16,7.60
2016,04,27,04,17,7.60
2016,04,27,04,18,7.60
2016,04,27,04,19,7.60
2016,04,27,04,20,7.60
2016,04,27,04,21,7.60
2016,04,27,04,22,7.60
2016,04,27,04,23,7.60
2016,04,27,04,24,7.60
2016,04,27,04,25,7.60
2016,04,27,04,26,7.60
2016,04,27,04,27,7.60
2016,04,27,04,28,7.60
2016,04,27,04,29,7.60
2016,04,27,04,30,7.60
2016,04,27,04,31,7.60
2016,04,27,04,32,7.60
2016,04,27,04,33,7.60
2016,04,27,04,34,7.60
2016,04,27,04,35,7.60
2016,04,27,04,36,7.50
2016,04,27,04,37,7.50
2016,04,27,04,38,7.50
2016,04,27,04,39,7.50
2016,04,27,04,40,7.50
2016,04,27,04,41,7.50
2016,04,27,04,42,7.50
2016,04,27,04,43,7.60
2016,04,27,04,44,7.60
2016,04,27,04,45,7.60
2016,04,27,04,46,7.60
2016,04,27,04,47,7.60
2016,04,27,04,48,7.60
2016,04,27,04,49,7.60
2016,04,27,04,50,7.60
2016,04,27,04,51,7.50
2016,04,27,04,52,7.50
2016,04,27,04,53,7.50
2016,04,27,04,54,7.50
2016,04,27,04,55,7.50
2016,04,27,04,56,7.50
2016,04,27,04,57,7.50
2016,04,27,04,58,7.50
2016,04,27,04,59,7.50
2016,04,27,05,00,7.50
2016,04,27,05,01,7.50
2016,04,27,05,02,7.50
2016,04,27,05,03,7.50
2016,04,27,05,04,7.50
2016,04,27,05,05,7.50
2016,04,27,05,06,7.50
2016,04,27,05,07,7.50
2016,04,27,05,08,7.50
2016,04,27,05,09,7.40
2016,04,27,05,10,7.50
2016,04,27,05,11,7.40
2016,04,27,05,12,7.40
2016,04,27,05,13,7.40
2016,04,27,05,14,7.50
2016,04,27,05,15,7.40
2016,04,27,05,16,7.50
2016,04,27,05,17,7.40
2016,04,27,05,18,7.50
2016,04,27,05,19,7.40
2016,04,27,05,20,7.40
2016,04,27,05,21,7.40
2016,04,27,05,22,7.40
2016,04,27,05,23,7.40
2016,04,27,05,24,7.40
2016,04,27,05,25,7.40
2016,04,27,05,26,7.40
2016,04,27,05,27,7.40
2016,04,27,05,28,7.40
2016,04,27,05,29,7.40
2016,04,27,05,30,7.40
2016,04,27,05,31,7.40
2016,04,27,05,32,7.40
2016,04,27,05,33,7.40
2016,04,27,05,34,7.40
2016,04,27,05,35,7.40
2016,04,27,05,36,7.40
2016,04,27,05,37,7.40
2016,04,27,05,38,7.40
2016,04,27,05,39,7.40
2016,04,27,05,40,7.40
2016,04,27,05,41,7.40
2016,04,27,05,42,7.40
2016,04,27,05,43,7.40
2016,04,27,05,44,7.40
2016,04,27,05,45,7.40
2016,04,27,05,46,7.40
2016,04,27,05,47,7.40
2016,04,27,05,48,7.40
2016,04,27,05,49,7.40
2016,04,27,05,50,7.40
2016,04,27,05,51,7.40
2016,04,27,05,52,7.40
2016,04,27,05,53,7.40
2016,04,27,05,54,7.40
2016,04,27,05,55,7.40
2016,04,27,05,56,7.40
2016,04,27,05,57,7.40
2016,04,27,05,58,7.40
2016,04,27,05,59,7.40
2016,04,27,06,00,7.40
2016,04,27,06,01,7.40
2016,04,27,06,02,7.40
2016,04,27,06,03,7.40
2016,04,27,06,04,7.40
2016,04,27,06,05,7.40
2016,04,27,06,06,7.40
2016,04,27,06,07,7.40
2016,04,27,06,08,7.40
2016,04,27,06,09,7.40
2016,04,27,06,10,7.50
2016,04,27,06,11,7.50
2016,04,27,06,12,7.50
2016,04,27,06,13,7.60
2016,04,27,06,14,7.60
2016,04,27,06,15,7.70
2016,04,27,06,16,7.70
2016,04,27,06,17,7.70
2016,04,27,06,18,7.70
2016,04,27,06,19,7.70
2016,04,27,06,20,7.70
2016,04,27,06,21,7.70
2016,04,27,06,22,7.60
2016,04,27,06,23,7.60
2016,04,27,06,24,7.60
2016,04,27,06,25,7.60
2016,04,27,06,26,7.60
2016,04,27,06,27,7.60
2016,04,27,06,28,7.60
2016,04,27,06,29,7.60
2016,04,27,06,30,7.50
2016,04,27,06,31,7.50
2016,04,27,06,32,7.50
2016,04,27,06,33,7.50
2016,04,27,06,34,7.50
2016,04,27,06,35,7.50
2016,04,27,06,36,7.50
2016,04,27,06,37,7.50
2016,04,27,06,38,7.50
2016,04,27,06,39,7.50
2016,04,27,06,40,7.50
2016,04,27,06,41,7.50
2016,04,27,06,42,7.50
2016,04,27,06,43,7.50
2016,04,27,06,44,7.50
2016,04,27,06,45,7.50
2016,04,27,06,46,7.50
2016,04,27,06,47,7.50
2016,04,27,06,48,7.50
2016,04,27,06,49,7.50
2016,04,27,06,50,7.50
2016,04,27,06,51,7.60
2016,04,27,06,52,7.60
2016,04,27,06,53,7.60
2016,04,27,06,54,7.60
2016,04,27,06,55,7.60
2016,04,27,06,56,7.60
2016,04,27,06,57,7.60
2016,04,27,06,58,7.60
2016,04,27,06,59,7.60
2016,04,27,07,00,7.60
2016,04,27,07,01,7.60
2016,04,27,07,02,7.60
2016,04,27,07,03,7.60
2016,04,27,07,04,7.60
2016,04,27,07,05,7.60
2016,04,27,07,06,7.70
2016,04,27,07,07,7.70
2016,04,27,07,08,7.70
2016,04,27,07,09,7.70
2016,04,27,07,10,7.70
2016,04,27,07,11,7.70
2016,04,27,07,12,7.70
2016,04,27,07,13,7.70
2016,04,27,07,14,7.70
2016,04,27,07,15,7.70
2016,04,27,07,16,7.70
2016,04,27,07,17,7.70
2016,04,27,07,18,7.80
2016,04,27,07,19,7.80
2016,04,27,07,20,7.80
2016,04,27,07,21,7.80
2016,04,27,07,22,7.80
2016,04,27,07,23,7.80
2016,04,27,07,24,7.80
2016,04,27,07,25,7.80
2016,04,27,07,26,7.90
2016,04,27,07,27,7.90
2016,04,27,07,28,7.90
2016,04,27,07,29,7.90
2016,04,27,07,30,7.90
2016,04,27,07,31,7.90
2016,04,27,07,32,7.90
2016,04,27,07,33,7.90
2016,04,27,07,34,8.00
2016,04,27,07,35,8.00
2016,04,27,07,36,8.00
2016,04,27,07,37,8.00
2016,04,27,07,38,8.00
2016,04,27,07,39,8.00
2016,04,27,07,40,8.10
2016,04,27,07,41,8.10
2016,04,27,07,42,8.10
2016,04,27,07,43,8.00
2016,04,27,07,44,8.00
2016,04,27,07,45,8.10
2016,04,27,07,46,8.10
2016,04,27,07,47,8.10
2016,04,27,07,48,8.10
2016,04,27,07,49,8.10
2016,04,27,07,50,8.10
2016,04,27,07,51,8.20
2016,04,27,07,52,8.20
2016,04,27,07,53,8.20
2016,04,27,07,54,8.20
2016,04,27,07,55,8.20
2016,04,27,07,56,8.20
2016,04,27,07,57,8.20
2016,04,27,07,58,8.20
2016,04,27,07,59,8.20
2016,04,27,08,00,8.30
2016,04,27,08,01,8.30
2016,04,27,08,02,8.30
2016,04,27,08,03,8.30
2016,04,27,08,04,8.30
2016,04,27,08,05,8.30
2016,04,27,08,06,8.30
2016,04,27,08,07,8.30
2016,04,27,08,08,8.30
2016,04,27,08,09,8.40
2016,04,27,08,10,8.40
2016,04,27,08,11,8.40
2016,04,27,08,12,8.40
2016,04,27,08,13,8.40
2016,04,27,08,14,8.50
2016,04,27,08,15,8.50
2016,04,27,08,16,8.50
2016,04,27,08,17,8.50
2016,04,27,08,18,8.60
2016,04,27,08,19,8.60
2016,04,27,08,20,8.60
2016,04,27,08,21,8.70
2016,04,27,08,22,8.70
2016,04,27,08,23,8.70
2016,04,27,08,24,8.70
2016,04,27,08,25,8.70
2016,04,27,08,26,8.80
2016,04,27,08,27,8.80
2016,04,27,08,28,8.90
2016,04,27,08,29,8.90
2016,04,27,08,30,8.90
2016,04,27,08,31,8.90
2016,04,27,08,32,8.90
2016,04,27,08,33,9.00
2016,04,27,08,34,8.90
2016,04,27,08,35,8.90
2016,04,27,08,36,8.90
2016,04,27,08,37,8.90
2016,04,27,08,38,8.90
2016,04,27,08,39,8.90
2016,04,27,08,40,9.00
2016,04,27,08,41,9.00
2016,04,27,08,42,9.00
2016,04,27,08,43,9.00
2016,04,27,08,44,9.10
2016,04,27,08,45,9.10
2016,04,27,08,46,9.20
2016,04,27,08,47,9.20
2016,04,27,08,48,9.20
2016,04,27,08,49,9.30
2016,04,27,08,50,9.40
2016,04,27,08,51,9.50
2016,04,27,08,52,9.60
2016,04,27,08,53,9.60
2016,04,27,08,54,9.60
2016,04,27,08,55,9.60
2016,04,27,08,56,9.60
2016,04,27,08,57,9.60
2016,04,27,08,58,9.60
2016,04,27,08,59,9.60
2016,04,27,09,00,9.70
2016,04,27,09,01,9.70
2016,04,27,09,02,9.70
2016,04,27,09,03,9.70
2016,04,27,09,04,9.70
2016,04,27,09,05,9.70
2016,04,27,09,06,9.70
2016,04,27,09,07,9.70
2016,04,27,09,08,9.70
2016,04,27,09,09,9.70
2016,04,27,09,10,9.70
2016,04,27,09,11,9.70
2016,04,27,09,12,9.80
2016,04,27,09,13,9.80
2016,04,27,09,14,9.80
2016,04,27,09,15,9.80
2016,04,27,09,16,9.80
2016,04,27,09,17,9.90
2016,04,27,09,18,9.90
2016,04,27,09,19,9.90
2016,04,27,09,20,10.00
2016,04,27,09,21,10.10
2016,04,27,09,22,10.10
2016,04,27,09,23,10.20
2016,04,27,09,24,10.30
2016,04,27,09,25,10.30
2016,04,27,09,26,10.40
2016,04,27,09,27,10.40
2016,04,27,09,28,10.40
2016,04,27,09,29,10.40
2016,04,27,09,30,10.40
2016,04,27,09,31,10.30
2016,04,27,09,32,10.30
2016,04,27,09,33,10.30
2016,04,27,09,34,10.40
2016,04,27,09,35,10.30
2016,04,27,09,36,10.30
2016,04,27,09,37,10.40
2016,04,27,09,38,10.40
2016,04,27,09,39,10.40
2016,04,27,09,40,10.40
2016,04,27,09,41,10.40
2016,04,27,09,42,10.40
2016,04,27,09,43,10.40
2016,04,27,09,44,10.40
2016,04,27,09,45,10.40
2016,04,27,09,46,10.40
2016,04,27,09,47,10.50
2016,04,27,09,48,10.50
2016,04,27,09,49,10.50
2016,04,27,09,50,10.60
2016,04,27,09,51,10.60
2016,04,27,09,52,10.60
2016,04,27,09,53,10.70
2016,04,27,09,54,10.70
2016,04,27,09,55,10.70
2016,04,27,09,56,10.80
2016,04,27,09,57,10.80
2016,04,27,09,58,10.80
2016,04,27,09,59,10.80
2016,04,27,10,00,10.80
2016,04,27,10,01,10.80
2016,04,27,10,02,10.80
2016,04,27,10,03,10.90
2016,04,27,10,04,10.90
2016,04,27,10,05,11.00
2016,04,27,10,06,11.00
2016,04,27,10,07,11.10
2016,04,27,10,08,11.20
2016,04,27,10,09,11.20
2016,04,27,10,10,11.20
2016,04,27,10,11,11.30
2016,04,27,10,12,11.30
2016,04,27,10,13,11.50
2016,04,27,10,14,11.60
2016,04,27,10,15,11.60
2016,04,27,10,16,11.60
2016,04,27,10,17,11.60
2016,04,27,10,18,11.60
2016,04,27,10,19,11.70
2016,04,27,10,20,11.70
2016,04,27,10,21,11.80
2016,04,27,10,22,12.00
2016,04,27,10,23,12.00
2016,04,27,10,24,12.00
2016,04,27,10,25,12.00
2016,04,27,10,26,12.00
2016,04,27,10,27,11.90
2016,04,27,10,28,11.90
2016,04,27,10,29,11.90
2016,04,27,10,30,11.90
2016,04,27,10,31,11.90
2016,04,27,10,32,11.90
2016,04,27,10,33,11.90
2016,04,27,10,34,11.80
2016,04,27,10,35,11.70
2016,04,27,10,36,11.70
2016,04,27,10,37,11.70
2016,04,27,10,38,11.80
2016,04,27,10,39,11.80
2016,04,27,10,40,11.80
2016,04,27,10,41,11.80
2016,04,27,10,42,11.90
2016,04,27,10,43,12.00
2016,04,27,10,44,12.00
2016,04,27,10,45,12.10
2016,04,27,10,46,12.20
2016,04,27,10,47,12.20
2016,04,27,10,48,12.20
2016,04,27,10,49,12.20
2016,04,27,10,50,12.20
2016,04,27,10,51,12.20
2016,04,27,10,52,12.20
2016,04,27,10,53,12.20
2016,04,27,10,54,12.20
2016,04,27,10,55,12.10
2016,04,27,10,56,12.10
2016,04,27,10,57,12.20
2016,04,27,10,58,12.20
2016,04,27,10,59,12.20
2016,04,27,11,00,12.20
2016,04,27,11,01,12.20
2016,04,27,11,02,12.20
2016,04,27,11,03,12.10
2016,04,27,11,04,12.10
2016,04,27,11,05,12.10
2016,04,27,11,06,12.10
2016,04,27,11,07,12.20
2016,04,27,11,08,12.30
2016,04,27,11,09,12.30
2016,04,27,11,10,12.30
2016,04,27,11,11,12.20
2016,04,27,11,12,12.20
2016,04,27,11,13,12.10
2016,04,27,11,14,12.10
2016,04,27,11,15,12.10
2016,04,27,11,16,12.10
2016,04,27,11,17,12.10
2016,04,27,11,18,12.00
2016,04,27,11,19,11.90
2016,04,27,11,20,11.80
2016,04,27,11,21,11.80
2016,04,27,11,22,11.80
2016,04,27,11,23,11.80
2016,04,27,11,24,12.00
2016,04,27,11,25,12.10
2016,04,27,11,26,12.10
2016,04,27,11,27,12.20
2016,04,27,11,28,12.10
2016,04,27,11,29,12.00
2016,04,27,11,30,12.10
2016,04,27,11,31,12.10
2016,04,27,11,32,12.10
2016,04,27,11,33,12.10
2016,04,27,11,34,12.00
2016,04,27,11,35,12.00
2016,04,27,11,36,12.00
2016,04,27,11,37,12.00
2016,04,27,11,38,12.10
2016,04,27,11,39,12.10
2016,04,27,11,40,12.00
2016,04,27,11,41,12.10
2016,04,27,11,42,12.10
2016,04,27,11,43,12.10
2016,04,27,11,44,12.10
2016,04,27,11,45,12.00
2016,04,27,11,46,12.00
2016,04,27,11,47,12.00
2016,04,27,11,48,12.00
2016,04,27,11,49,11.90
2016,04,27,11,50,11.90
2016,04,27,11,51,11.80
2016,04,27,11,52,11.80
2016,04,27,11,53,11.80
2016,04,27,11,54,11.90
2016,04,27,11,55,11.90
2016,04,27,11,56,12.00
2016,04,27,11,57,12.00
2016,04,27,11,58,12.00
2016,04,27,11,59,12.00
2016,04,27,12,00,11.90
2016,04,27,12,01,11.90
2016,04,27,12,02,11.90
2016,04,27,12,03,11.90
2016,04,27,12,04,11.90
2016,04,27,12,05,11.90
2016,04,27,12,06,12.00
2016,04,27,12,07,12.20
2016,04,27,12,08,12.20
2016,04,27,12,09,12.20
2016,04,27,12,10,12.20
2016,04,27,12,11,12.20
2016,04,27,12,12,12.20
2016,04,27,12,13,12.20
2016,04,27,12,14,12.20
2016,04,27,12,15,12.20
2016,04,27,12,16,12.30
2016,04,27,12,17,12.30
2016,04,27,12,18,12.20
2016,04,27,12,19,12.20
2016,04,27,12,20,12.20
2016,04,27,12,21,12.20
2016,04,27,12,22,12.20
2016,04,27,12,23,12.20
2016,04,27,12,24,12.20
2016,04,27,12,25,12.20
2016,04,27,12,26,12.20
2016,04,27,12,27,12.20
2016,04,27,12,28,12.20
2016,04,27,12,29,12.20
2016,04,27,12,30,12.30
2016,04,27,12,31,12.40
2016,04,27,12,32,12.50
2016,04,27,12,33,12.60
2016,04,27,12,34,12.60
2016,04,27,12,35,12.70
2016,04,27,12,36,12.80
2016,04,27,12,37,12.80
2016,04,27,12,38,12.90
2016,04,27,12,39,13.00
2016,04,27,12,40,13.00
2016,04,27,12,41,13.10
2016,04,27,12,42,13.30
2016,04,27,12,43,13.30
2016,04,27,12,44,13.40
2016,04,27,12,45,13.40
2016,04,27,12,46,13.40
2016,04,27,12,47,13.40
2016,04,27,12,48,13.30
2016,04,27,12,49,13.20
2016,04,27,12,50,13.20
2016,04,27,12,51,13.20
2016,04,27,12,52,13.10
2016,04,27,12,53,13.10
2016,04,27,12,54,13.10
2016,04,27,12,55,13.10
2016,04,27,12,56,13.20
2016,04,27,12,57,13.20
2016,04,27,12,58,13.30
2016,04,27,12,59,13.40
2016,04,27,13,00,13.50
2016,04,27,13,01,13.50
2016,04,27,13,02,13.60
2016,04,27,13,03,13.70
2016,04,27,13,04,13.70
2016,04,27,13,05,13.70
2016,04,27,13,06,13.80
2016,04,27,13,07,13.80
2016,04,27,13,08,13.80
2016,04,27,13,09,13.80
2016,04,27,13,10,13.70
2016,04,27,13,11,13.60
2016,04,27,13,12,13.60
2016,04,27,13,13,13.60
2016,04,27,13,14,13.50
2016,04,27,13,15,13.50
2016,04,27,13,16,13.40
2016,04,27,13,17,13.40
2016,04,27,13,18,13.30
2016,04,27,13,19,13.30
2016,04,27,13,20,13.30
2016,04,27,13,21,13.30
2016,04,27,13,22,13.40
2016,04,27,13,23,13.50
2016,04,27,13,24,13.60
2016,04,27,13,25,13.60
2016,04,27,13,26,13.60
2016,04,27,13,27,13.70
2016,04,27,13,28,13.80
2016,04,27,13,29,13.90
2016,04,27,13,30,14.00
2016,04,27,13,31,14.00
2016,04,27,13,32,14.10
2016,04,27,13,33,14.10
2016,04,27,13,34,14.10
2016,04,27,13,35,14.10
2016,04,27,13,36,14.10
2016,04,27,13,37,14.20
2016,04,27,13,38,14.30
2016,04,27,13,39,14.30
2016,04,27,13,40,14.30
2016,04,27,13,41,14.30
2016,04,27,13,42,14.30
2016,04,27,13,43,14.30
2016,04,27,13,44,14.40
2016,04,27,13,45,14.40
2016,04,27,13,46,14.50
2016,04,27,13,47,14.60
2016,04,27,13,48,14.60
2016,04,27,13,49,14.60
2016,04,27,13,50,14.70
2016,04,27,13,51,14.70
2016,04,27,13,52,14.70
2016,04,27,13,53,14.70
2016,04,27,13,54,14.70
2016,04,27,13,55,14.80
2016,04,27,13,56,14.80
2016,04,27,13,57,14.80
2016,04,27,13,58,14.80
2016,04,27,13,59,14.80
2016,04,27,14,00,14.80
2016,04,27,14,01,14.80
2016,04,27,14,02,14.90
2016,04,27,14,03,15.00
2016,04,27,14,04,15.00
2016,04,27,14,05,15.00
2016,04,27,14,06,15.00
2016,04,27,14,07,15.00
2016,04,27,14,08,15.00
2016,04,27,14,09,14.90
2016,04,27,14,10,14.80
2016,04,27,14,11,14.80
2016,04,27,14,12,14.70
2016,04,27,14,13,14.70
2016,04,27,14,14,14.70
2016,04,27,14,15,14.70
2016,04,27,14,16,14.70
2016,04,27,14,17,14.80
2016,04,27,14,18,14.80
2016,04,27,14,19,14.80
2016,04,27,14,20,14.80
2016,04,27,14,21,14.80
2016,04,27,14,22,14.80
2016,04,27,14,23,14.80
2016,04,27,14,24,14.80
2016,04,27,14,25,14.70
2016,04,27,14,26,14.60
2016,04,27,14,27,14.60
2016,04,27,14,28,14.50
2016,04,27,14,29,14.50
2016,04,27,14,30,14.40
2016,04,27,14,31,14.40
2016,04,27,14,32,14.40
2016,04,27,14,33,14.30
2016,04,27,14,34,14.30
2016,04,27,14,35,14.30
2016,04,27,14,36,14.30
2016,04,27,14,37,14.20
2016,04,27,14,38,14.20
2016,04,27,14,39,14.30
2016,04,27,14,40,14.30
2016,04,27,14,41,14.30
2016,04,27,14,42,14.30
2016,04,27,14,43,14.30
2016,04,27,14,44,14.30
2016,04,27,14,45,14.20
2016,04,27,14,46,14.30
2016,04,27,14,47,14.30
2016,04,27,14,48,14.30
2016,04,27,14,49,14.40
2016,04,27,14,50,14.40
2016,04,27,14,51,14.40
2016,04,27,14,52,14.40
2016,04,27,14,53,14.40
2016,04,27,14,54,14.40
2016,04,27,14,55,14.50
2016,04,27,14,56,14.50
2016,04,27,14,57,14.40
2016,04,27,14,58,14.40
2016,04,27,14,59,14.40
2016,04,27,15,00,14.50
2016,04,27,15,01,14.50
2016,04,27,15,02,14.60
2016,04,27,15,03,14.60
2016,04,27,15,04,14.60
2016,04,27,15,05,14.60
2016,04,27,15,06,14.60
2016,04,27,15,07,14.70
2016,04,27,15,08,14.70
2016,04,27,15,09,14.70
2016,04,27,15,10,14.70
2016,04,27,15,11,14.70
2016,04,27,15,12,14.70
2016,04,27,15,13,14.70
2016,04,27,15,14,14.70
2016,04,27,15,15,14.70
2016,04,27,15,16,14.70
2016,04,27,15,17,14.70
2016,04,27,15,18,14.70
2016,04,27,15,19,14.80
2016,04,27,15,20,14.80
2016,04,27,15,21,14.90
2016,04,27,15,22,14.90
2016,04,27,15,23,14.90
2016,04,27,15,24,14.90
2016,04,27,15,25,14.90
2016,04,27,15,26,14.80
2016,04,27,15,27,14.80
2016,04,27,15,28,14.80
2016,04,27,15,29,14.90
2016,04,27,15,30,14.90
2016,04,27,15,31,14.90
2016,04,27,15,32,15.00
2016,04,27,15,33,15.00
2016,04,27,15,34,15.00
2016,04,27,15,35,15.00
2016,04,27,15,36,15.00
2016,04,27,15,37,15.00
2016,04,27,15,38,14.90
2016,04,27,15,39,15.00
2016,04,27,15,40,15.10
2016,04,27,15,41,15.10
2016,04,27,15,42,15.10
2016,04,27,15,43,15.20
2016,04,27,15,44,15.10
2016,04,27,15,45,15.10
2016,04,27,15,46,15.10
2016,04,27,15,47,15.20
2016,04,27,15,48,15.20
2016,04,27,15,49,15.20
2016,04,27,15,50,15.20
2016,04,27,15,51,15.20
2016,04,27,15,52,15.20
2016,04,27,15,53,15.20
2016,04,27,15,54,15.20
2016,04,27,15,55,15.20
2016,04,27,15,56,15.20
2016,04,27,15,57,15.20
2016,04,27,15,58,15.20
2016,04,27,15,59,15.10
2016,04,27,16,00,15.10
2016,04,27,16,01,15.20
2016,04,27,16,02,15.20
2016,04,27,16,03,15.20
2016,04,27,16,04,15.20
2016,04,27,16,05,15.20
2016,04,27,16,06,15.20
2016,04,27,16,07,15.20
2016,04,27,16,08,15.20
2016,04,27,16,09,15.30
2016,04,27,16,10,15.30
2016,04,27,16,11,15.40
2016,04,27,16,12,15.40
2016,04,27,16,13,15.40
2016,04,27,16,14,15.40
2016,04,27,16,15,15.40
2016,04,27,16,16,15.40
2016,04,27,16,17,15.40
2016,04,27,16,18,15.50
2016,04,27,16,19,15.50
2016,04,27,16,20,15.60
2016,04,27,16,21,15.60
2016,04,27,16,22,15.60
2016,04,27,16,23,15.60
2016,04,27,16,24,15.60
2016,04,27,16,25,15.70
2016,04,27,16,26,15.70
2016,04,27,16,27,15.80
2016,04,27,16,28,15.80
2016,04,27,16,29,15.80
2016,04,27,16,30,15.80
2016,04,27,16,31,15.80
2016,04,27,16,32,15.80
2016,04,27,16,33,15.80
2016,04,27,16,34,15.80
2016,04,27,16,35,15.80
2016,04,27,16,36,15.80
2016,04,27,16,37,15.80
2016,04,27,16,38,15.80
2016,04,27,16,39,15.90
2016,04,27,16,40,15.90
2016,04,27,16,41,15.90
2016,04,27,16,42,15.90
2016,04,27,16,43,15.90
2016,04,27,16,44,16.00
2016,04,27,16,45,16.00
2016,04,27,16,46,16.00
2016,04,27,16,47,16.10
2016,04,27,16,48,16.10
2016,04,27,16,49,16.10
2016,04,27,16,50,16.20
2016,04,27,16,51,16.20
2016,04,27,16,52,16.30
2016,04,27,16,53,16.30
2016,04,27,16,54,16.40
2016,04,27,16,55,16.40
2016,04,27,16,56,16.40
2016,04,27,16,57,16.40
2016,04,27,16,58,16.40
2016,04,27,16,59,16.40
2016,04,27,17,00,16.40
2016,04,27,17,01,16.40
2016,04,27,17,02,16.30
2016,04,27,17,03,16.40
2016,04,27,17,04,16.40
2016,04,27,17,05,16.40
2016,04,27,17,06,16.30
2016,04,27,17,07,16.30
2016,04,27,17,08,16.30
2016,04,27,17,09,16.30
2016,04,27,17,10,16.30
2016,04,27,17,11,16.20
2016,04,27,17,12,16.20
2016,04,27,17,13,16.20
2016,04,27,17,14,16.30
2016,04,27,17,15,16.30
2016,04,27,17,16,16.30
2016,04,27,17,17,16.30
2016,04,27,17,18,16.30
2016,04,27,17,19,16.30
2016,04,27,17,20,16.30
2016,04,27,17,21,16.30
2016,04,27,17,22,16.40
2016,04,27,17,23,16.40
2016,04,27,17,24,16.40
2016,04,27,17,25,16.50
2016,04,27,17,26,16.50
2016,04,27,17,27,16.60
2016,04,27,17,28,16.60
2016,04,27,17,29,16.60
2016,04,27,17,30,16.60
2016,04,27,17,31,16.60
2016,04,27,17,32,16.60
2016,04,27,17,33,16.60
2016,04,27,17,34,16.60
2016,04,27,17,35,16.60
2016,04,27,17,36,16.60
2016,04,27,17,37,16.60
2016,04,27,17,38,16.60
2016,04,27,17,39,16.50
2016,04,27,17,40,16.50
2016,04,27,17,41,16.40
2016,04,27,17,42,16.40
2016,04,27,17,43,16.40